Taloyoak, Nunavut

3:23 PM MDT on April 27, 2017 (GMT -0600)
Taloyoak

Weather History for CYYH - April, 2013

Change the Weather History Date:

Thursday, April 4, 2013

  Actual Average Record
Temperature  
Mean Temperature -15 °F -  
Max Temperature 3 °F 5 °F 6 °F (2012)
Min Temperature -31 °F -7 °F -39 °F (2016)
Degree Days  
Heating Degree Days 80    
Moisture  
Dew Point -22 °F    
Average Humidity 75    
Maximum Humidity 92    
Minimum Humidity 53    
Precipitation  
Precipitation 0.16 in - - ()
Sea Level Pressure  
Sea Level Pressure 30.30 in    
Wind  
Wind Speed 8 mph ()    
Max Wind Speed 17 mph    
Max Gust Speed -    
Visibility 12.3 miles    
Events Snow    
Averages and records for this station are not official NWS values.
T = Trace of Precipitation, MM = Missing Value Source: Averaged Metar Reports

Daily Weather History Graph

Daily Weather History Graph

Search for Another Location

Airport or City:

Trip Planner

Search our weather history database for the weather conditions in past years. The results will help you decide how hot, cold, wet, or windy it might be!

Date:

Astronomy

Apr. 04, 2013 Rise Set
Actual Time 6:03 AM CDT 8:33 PM CDT
Civil Twilight 4:56 AM CDT 9:40 PM CDT
Nautical Twilight 3:15 AM CDT 11:26 PM CDT
Astronomical Twilight Sun does not set Sun does not set
Moon 5:37 AM CDT (4/4) 11:53 AM CDT (4/4)
Length of Visible Light 16h 43m
Length of Day
14h 30m
Waning Crescent, 33% of the Moon is Illuminated
Apr 4
Waning Crescent
Apr 10
New
Apr 18
First Quarter
Apr 25
Full
May 2
Last Quarter

Hourly Weather History & Observations

Time (CDT) Temp. Windchill Dew Point Humidity Pressure Visibility Wind Dir Wind Speed Gust Speed Precip Events Conditions
12:00 AM -27.4 °F -44.1 °F -34.6 °F 69% 30.35 in 15.0 mi North 5.8 mph - N/A   Clear
1:00 AM -30 °F - -36 °F 55% 30.35 in 15 mi North 8.1 mph - -   Partly Cloudy
1:00 AM -31.0 °F -51.9 °F -36.4 °F 75% 30.35 in 15.0 mi North 8.1 mph - N/A   Clear
2:00 AM -29.2 °F -49.7 °F -34.6 °F 75% 30.34 in 15.0 mi North 8.1 mph - N/A   Clear
3:00 AM -27.4 °F -47.6 °F -32.8 °F 75% 30.34 in 15.0 mi North 8.1 mph - N/A   Clear
4:00 AM -29.2 °F -51.2 °F -34.6 °F 75% 30.35 in 15.0 mi North 9.2 mph - N/A   Clear
6:00 AM -29.2 °F -49.7 °F -36.4 °F 68% 30.36 in 15.0 mi North 8.1 mph - N/A   Partly Cloudy
7:00 AM -29 °F - -35 °F 57% 30.36 in 15 mi North 9.2 mph - -   Scattered Clouds
7:00 AM -29.2 °F -51.2 °F -34.6 °F 75% 30.36 in 15.0 mi North 9.2 mph - N/A   Partly Cloudy
8:00 AM -27.4 °F -49.0 °F -32.8 °F 75% 30.36 in 15.0 mi North 9.2 mph - N/A   Partly Cloudy
9:00 AM -25.6 °F -48.0 °F -31.0 °F 76% 30.35 in 15.0 mi North 10.4 mph - N/A   Partly Cloudy
10:00 AM -23.8 °F -45.8 °F -31.0 °F 69% 30.34 in 15.0 mi North 10.4 mph - N/A   Partly Cloudy
12:00 PM -18.4 °F - -27.4 °F 63% 30.33 in 15.0 mi North 2.3 mph - N/A   Mostly Cloudy
1:00 PM -17 °F - -25 °F 53% 30.31 in 15 mi North 4.6 mph - -   Mostly Cloudy
1:00 PM -16.6 °F -29.3 °F -23.8 °F 70% 30.31 in 15.0 mi North 4.6 mph - N/A   Mostly Cloudy
2:00 PM -13.0 °F -27.0 °F -18.4 °F 77% 30.30 in 15.0 mi NNW 5.8 mph - N/A   Mostly Cloudy
3:00 PM -9.4 °F -20.9 °F -16.6 °F 71% 30.30 in 15.0 mi NNW 4.6 mph - N/A   Mostly Cloudy
4:00 PM -7.6 °F -25.7 °F -13.0 °F 77% 30.29 in 15.0 mi NW 10.4 mph - N/A   Mostly Cloudy
4:18 PM - - - N/A% - 15.0 mi NNW 9.2 mph - N/A   Unknown
5:00 PM -5.8 °F -21.2 °F -11.2 °F 77% 30.27 in 9.0 mi NNW 8.1 mph - N/A Snow Light Snow
6:00 PM -4.0 °F -22.1 °F -7.6 °F 85% 30.25 in 8.0 mi NW 11.5 mph - N/A Snow Light Snow
7:00 PM -2 °F - -5 °F 82% 30.24 in 7 mi NNW 11.5 mph - - Snow Light Snow
7:00 PM -2.2 °F -20.7 °F -4.0 °F 92% 30.24 in 7.0 mi NNW 12.7 mph - N/A Snow Light Snow
8:00 PM -0.4 °F -18.4 °F -4.0 °F 85% 30.22 in 5.0 mi NNW 12.7 mph - N/A Snow Light Snow
9:00 PM 1.4 °F -16.1 °F -4.0 °F 78% 30.20 in 4.0 mi NNW 12.7 mph - N/A Snow Light Snow
10:00 PM 1.4 °F -18.8 °F -0.4 °F 92% 30.16 in 4.0 mi North 17.3 mph - N/A Snow Light Snow
11:00 PM 3.2 °F -16.5 °F 1.4 °F 92% 30.14 in 3.0 mi North 17.3 mph - N/A Snow Light Snow